TimeEDT,TemperatureF,Dew PointF,Humidity,Sea Level PressureIn,VisibilityMPH,Wind Direction,Wind SpeedMPH,Gust SpeedMPH,PrecipitationIn,Events,Conditions,WindDirDegrees,DateUTC
12:15 AM,59.0,53.6,82,30.23,5.0,Calm,Calm,-,N/A,,Clear,0,2012-10-04 04:15:00
12:35 AM,55.4,51.8,88,30.23,1.5,Calm,Calm,-,N/A,,Mist,0,2012-10-04 04:35:00
12:55 AM,55.4,51.8,88,30.23,2.5,Calm,Calm,-,N/A,,Haze,0,2012-10-04 04:55:00
1:15 AM,55.4,51.8,88,30.23,4.0,Calm,Calm,-,N/A,,Clear,0,2012-10-04 05:15:00
1:35 AM,55.4,51.8,88,30.24,1.2,Calm,Calm,-,N/A,,Mist,0,2012-10-04 05:35:00
1:55 AM,55.4,51.8,88,30.23,3.0,Calm,Calm,-,N/A,,Clear,0,2012-10-04 05:55:00
2:15 AM,55.4,51.8,88,30.23,3.0,Calm,Calm,-,N/A,,Clear,0,2012-10-04 06:15:00
2:35 AM,55.4,51.8,88,30.24,4.0,Calm,Calm,-,N/A,,Clear,0,2012-10-04 06:35:00
2:55 AM,55.4,51.8,88,30.24,3.0,Calm,Calm,-,N/A,,Clear,0,2012-10-04 06:55:00
3:15 AM,55.4,51.8,88,30.24,4.0,Calm,Calm,-,N/A,,Clear,0,2012-10-04 07:15:00
3:35 AM,55.4,51.8,88,30.23,4.0,North,3.5,-,N/A,,Clear,350,2012-10-04 07:35:00
3:55 AM,55.4,51.8,88,30.23,4.0,Calm,Calm,-,N/A,,Haze,0,2012-10-04 07:55:00
4:15 AM,55.4,51.8,88,30.24,4.0,Calm,Calm,-,N/A,,Clear,0,2012-10-04 08:15:00
4:35 AM,55.4,51.8,88,30.23,3.0,Calm,Calm,-,N/A,,Clear,0,2012-10-04 08:35:00
4:55 AM,55.4,51.8,88,30.24,4.0,Calm,Calm,-,N/A,,Clear,0,2012-10-04 08:55:00
5:15 AM,53.6,50.0,88,30.25,3.0,Calm,Calm,-,N/A,,Clear,0,2012-10-04 09:15:00
5:35 AM,53.6,50.0,88,30.25,3.0,Calm,Calm,-,N/A,,Clear,0,2012-10-04 09:35:00
5:55 AM,53.6,50.0,88,30.26,3.0,Calm,Calm,-,N/A,,Clear,0,2012-10-04 09:55:00
6:15 AM,53.6,50.0,88,30.26,3.0,Calm,Calm,-,N/A,,Clear,0,2012-10-04 10:15:00
6:35 AM,53.6,50.0,88,30.27,3.0,Calm,Calm,-,N/A,,Clear,0,2012-10-04 10:35:00
6:55 AM,53.6,50.0,88,30.27,3.0,Calm,Calm,-,N/A,,Clear,0,2012-10-04 10:55:00
7:15 AM,53.6,50.0,88,30.27,4.0,Calm,Calm,-,N/A,,Clear,0,2012-10-04 11:15:00
7:35 AM,53.6,50.0,88,30.27,3.0,Calm,Calm,-,N/A,,Clear,0,2012-10-04 11:35:00
7:55 AM,53.6,50.0,88,30.28,2.0,Calm,Calm,-,N/A,,Clear,0,2012-10-04 11:55:00
8:15 AM,53.6,50.0,88,30.28,2.0,Calm,Calm,-,N/A,,Clear,0,2012-10-04 12:15:00
8:35 AM,53.6,50.0,88,30.28,2.0,Calm,Calm,-,N/A,,Clear,0,2012-10-04 12:35:00
8:55 AM,57.2,53.6,88,30.29,5.0,Calm,Calm,-,N/A,,Clear,0,2012-10-04 12:55:00
9:15 AM,59.0,53.6,82,30.29,7.0,Calm,Calm,-,N/A,,Clear,0,2012-10-04 13:15:00
9:35 AM,60.8,57.2,88,30.30,10.0,Calm,Calm,-,N/A,,Clear,0,2012-10-04 13:35:00
9:55 AM,64.4,57.2,77,30.30,10.0,Calm,Calm,-,N/A,,Clear,0,2012-10-04 13:55:00
10:15 AM,66.2,53.6,64,30.31,10.0,Calm,Calm,-,N/A,,Clear,0,2012-10-04 14:15:00
10:35 AM,68.0,51.8,56,30.31,10.0,North,3.5,-,N/A,,Clear,350,2012-10-04 14:35:00
10:55 AM,69.8,51.8,53,30.31,10.0,NW,3.5,-,N/A,,Clear,320,2012-10-04 14:55:00
11:15 AM,69.8,48.2,46,30.31,10.0,NNW,4.6,-,N/A,,Clear,330,2012-10-04 15:15:00
11:35 AM,71.6,46.4,41,30.30,10.0,Calm,Calm,-,N/A,,Clear,0,2012-10-04 15:35:00
11:55 AM,73.4,46.4,38,30.30,10.0,NW,3.5,-,N/A,,Clear,320,2012-10-04 15:55:00
12:35 PM,73.4,44.6,36,30.30,10.0,NW,3.5,-,N/A,,Clear,310,2012-10-04 16:35:00
12:55 PM,75.2,42.8,31,30.29,10.0,NNW,5.8,-,N/A,,Clear,330,2012-10-04 16:55:00
1:15 PM,75.2,44.6,34,30.29,10.0,NNE,3.5,-,N/A,,Clear,20,2012-10-04 17:15:00
1:35 PM,77.0,44.6,32,30.28,10.0,North,4.6,-,N/A,,Clear,350,2012-10-04 17:35:00
1:55 PM,77.0,42.8,29,30.28,10.0,North,3.5,-,N/A,,Clear,360,2012-10-04 17:55:00
2:15 PM,77.0,44.6,32,30.27,10.0,Calm,Calm,-,N/A,,Clear,0,2012-10-04 18:15:00
2:35 PM,78.8,44.6,30,30.26,10.0,NNE,3.5,-,N/A,,Scattered Clouds,20,2012-10-04 18:35:00
2:55 PM,78.8,44.6,30,30.26,10.0,Calm,Calm,-,N/A,,Scattered Clouds,0,2012-10-04 18:55:00
3:15 PM,77.0,44.6,32,30.25,10.0,WNW,4.6,-,N/A,,Clear,300,2012-10-04 19:15:00
3:35 PM,77.0,42.8,29,30.25,10.0,NW,8.1,-,N/A,,Clear,310,2012-10-04 19:35:00
3:55 PM,77.0,41.0,28,30.25,10.0,Calm,Calm,-,N/A,,Clear,0,2012-10-04 19:55:00
4:15 PM,77.0,44.6,32,30.25,10.0,WNW,5.8,-,N/A,,Clear,290,2012-10-04 20:15:00
4:35 PM,77.0,44.6,32,30.24,10.0,West,3.5,-,N/A,,Clear,270,2012-10-04 20:35:00
4:55 PM,77.0,42.8,29,30.24,10.0,WNW,5.8,-,N/A,,Clear,300,2012-10-04 20:55:00
5:15 PM,75.2,44.6,34,30.24,10.0,West,3.5,-,N/A,,Clear,270,2012-10-04 21:15:00
5:35 PM,73.4,44.6,36,30.23,10.0,WNW,5.8,-,N/A,,Clear,290,2012-10-04 21:35:00
6:15 PM,71.6,46.4,41,30.23,10.0,WNW,3.5,-,N/A,,Clear,300,2012-10-04 22:15:00
6:35 PM,69.8,48.2,46,30.22,10.0,Calm,Calm,-,N/A,,Clear,0,2012-10-04 22:35:00
6:55 PM,69.8,50.0,49,30.23,10.0,Calm,Calm,-,N/A,,Clear,0,2012-10-04 22:55:00
7:15 PM,68.0,50.0,52,30.23,10.0,Calm,Calm,-,N/A,,Clear,0,2012-10-04 23:15:00
7:35 PM,68.0,50.0,52,30.23,10.0,Calm,Calm,-,N/A,,Clear,0,2012-10-04 23:35:00
7:55 PM,66.2,51.8,60,30.22,10.0,Calm,Calm,-,N/A,,Clear,0,2012-10-04 23:55:00
8:15 PM,64.4,53.6,68,30.23,10.0,Calm,Calm,-,N/A,,Clear,0,2012-10-05 00:15:00
8:35 PM,62.6,53.6,72,30.23,10.0,Calm,Calm,-,N/A,,Clear,0,2012-10-05 00:35:00
8:55 PM,62.6,51.8,68,30.24,10.0,Calm,Calm,-,N/A,,Clear,0,2012-10-05 00:55:00
9:15 PM,62.6,51.8,68,30.24,10.0,NNE,3.5,-,N/A,,Clear,20,2012-10-05 01:15:00
9:35 PM,62.6,51.8,68,30.24,10.0,Calm,Calm,-,N/A,,Clear,0,2012-10-05 01:35:00
9:55 PM,60.8,51.8,72,30.24,10.0,Calm,Calm,-,N/A,,Clear,0,2012-10-05 01:55:00
10:15 PM,62.6,51.8,68,30.25,10.0,Calm,Calm,-,N/A,,Clear,0,2012-10-05 02:15:00
10:35 PM,60.8,51.8,72,30.25,10.0,Calm,Calm,-,N/A,,Clear,0,2012-10-05 02:35:00
10:55 PM,59.0,53.6,82,30.26,7.0,Calm,Calm,-,N/A,,Clear,0,2012-10-05 02:55:00
11:15 PM,59.0,53.6,82,30.26,5.0,Calm,Calm,-,N/A,,Haze,0,2012-10-05 03:15:00
11:35 PM,59.0,53.6,82,30.26,5.0,Calm,Calm,-,N/A,,Haze,0,2012-10-05 03:35:00
11:55 PM,59.0,53.6,82,30.26,5.0,Calm,Calm,-,N/A,,Haze,0,2012-10-05 03:55:00